Vertical_Velocity
-3 -3 -4 -6 -6 -6 -7 -11 -3 -6 -8 -6 -4 -6 -7 -6 -4 -5 -5 -2 -1 -3 -5 -2 -0 -2 -3 -1 1 4 2 2 -1 6 8 12 26 -3 18 2 9 14 12 -7
-5 -3 -6 -6 -4 -6 -3 -3 1 1 -5 1 -6 -8 -2 -3 -4 -4 -4 -3 -4 -2 -4 0 -2 -0 -0 -0 -1 1 8 5 -5 -0 -4 -11 11 -7 16 14 4 -3 0 -4
-4 -5 -6 -5 -8 -6 -6 -6 -2 -3 -3 -7 -4 -6 -4 -5 -5 -6 -3 -2 0 0 0 -1 -2 1 0 -0 1 -3 5 5 4 -0 2 -2 8 -2 20 20 39 -3 -7 -9
-5 -5 -4 -6 -4 -5 -6 -3 -8 -5 -2 -3 -6 -6 -6 -4 -3 -4 -5 -2 -3 -3 -2 -3 0 0 -3 -1 -1 -1 0 -0 3 3 -0 -1 -2 -0 2 14 20 20 12 14
-6 -3 -8 -4 -4 -7 -7 -3 -9 -3 -7 -7 -4 -2 -4 -5 -4 -1 -4 -4 -3 -0 -2 -3 -3 -2 -2 -1 -0 0 -4 1 2 0 3 2 -1 0 5 11 13 17 1 1
-5 -5 -5 -6 -3 -6 -6 -5 0 -6 -6 -5 0 -2 -2 -3 -3 -2 -3 -1 -0 -1 -2 -2 -1 -1 -1 -1 -1 -0 -1 -1 1 -2 -0 -1 -2 -4 6 8 5 5 5 6
-6 -6 -6 -7 -5 -6 -9 -7 -5 -5 -9 -5 -8 -2 -3 -4 -3 -1 0 -2 -1 -0 -2 -0 4 -2 -1 -2 -0 0 -0 1 -2 -5 -6 2 -0 -0 -3 -1 0 2 3 2
-6 -5 -6 -7 -6 -6 -5 -5 -6 -4 -5 -9 -4 -0 -2 -1 -3 -5 -1 -0 -1 -1 1 4 -8 -7 -1 -2 -1 -1 -1 -2 -0 -1 -4 -3 2 3 2 4 1 1 8 1
-5 -5 -6 -7 -6 -6 -7 -5 -2 -6 -3 -2 -5 -3 -0 -3 -5 -6 -3 -1 -2 0 1 -9 -7 -2 -3 -1 -0 0 2 -1 -3 -1 0 -1 -3 0 -1 -1 0 0 -0 -4
-5 -5 -4 -4 -4 -5 -5 -8 -6 -6 -2 -4 0 3 -3 -6 -3 -3 -2 -2 1 -3 -1 -1 -1 -3 -6 -1 -2 -2 0 1 1 1 1 -1 -1 -4 -5 -2 -8 -4 -2 -1
-4 -4 -3 -2 -1 -3 -4 -1 -4 -4 -1 -2 -4 -6 -7 -7 -5 -2 -4 4 -3 -3 -3 -1 -2 -4 -0 1 -2 -0 -2 -1 0 1 2 0 0 -1 -2 -3 -5 -3 -2 -6
-3 -3 -3 -2 -1 -2 -3 -4 -2 -3 -4 -2 -6 1 2 -1 -3 -4 -1 -3 -2 -3 -3 -3 0 -1 -3 -1 -1 -2 -0 -0 -0 1 1 3 2 1 1 0 -1 -2 -2 -2
-3 -2 -3 -3 -1 -1 -1 -3 -5 -2 -4 -1 -2 -11 -4 -4 -1 -1 -3 -1 -0 -2 -1 -2 -1 -0 -1 -2 -1 -2 -2 -2 -1 -2 -1 -1 -2 -0 1 0 0 0 1 0
-4 -3 -2 -1 -1 -1 -2 -1 -4 -3 -1 -7 -5 -3 -3 -4 -2 -2 -1 -1 -0 1 1 1 2 3 3 1 0 1 1 2 0 -0 0 2 3 2 0 1 2 2 3 3
-3 -2 -2 -2 -1 -0 -2 -1 -0 1 -0 0 -2 3 3 1 0 -1 1 1 1 2 2 3 2 2 3 2 2 2 1 1 1 1 1 1 3 3 3 2 1 2 1 2
-3 -2 -3 -3 -3 -1 3 5 5 -1 -3 -1 -1 -5 -4 -2 -1 -2 -4 -2 -2 1 4 4 5 4 4 3 3 2 2 2 1 -0 0 1 -1 -1 -2 0 1 1 1 -1
-3 -1 -1 -1 1 -0 -2 -3 -1 -0 -0 -1 1 -0 -5 -1 -2 -2 -3 -1 -1 1 3 3 3 3 2 3 3 2 1 1 1 -0 -1 -1 3 -1 -0 -1 1 2 1 1
-2 -1 -1 -1 1 0 1 0 1 -2 1 1 -6 -2 -1 5 2 -1 -1 -0 0 1 2 4 3 4 3 2 2 -0 0 0 0 2 1 0 -1 1 1 -1 -3 -3 -1 -0
-1 0 -1 -1 -1 2 3 3 1 1 2 1 -1 -5 -12 -3 -0 1 2 3 -2 -0 1 2 4 2 3 0 -1 -1 -2 -1 -2 -1 1 1 1 -1 0 -1 -0 0 -0 -1
-2 -2 -1 2 0 -0 2 1 -3 -0 1 -3 -1 -1 -3 -2 -4 -2 -2 2 -2 -4 -2 -1 -0 2 2 -3 -1 1 -1 -1 -0 -1 -2 -1 -1 -0 -1 -1 -1 -2 -2 -1
-1 0 -1 -3 -0 2 1 -7 -3 -3 -5 -5 1 -2 2 2 -1 2 3 3 -1 -2 -2 -2 -2 -1 1 1 0 -0 -1 -1 0 -0 0 0 1 -0 -1 -1 1 -0 -1 -2
-4 -3 -1 -2 -3 -5 -7 -2 -0 -5 -6 -1 -2 0 -3 -2 2 -1 -7 1 -4 -1 -1 -0 -1 -2 -1 -1 -1 1 -0 -1 -1 -1 -1 -1 -1 0 0 -1 -2 -1 -1 -2
-2 -3 -2 -3 2 -0 -4 -2 2 0 1 3 1 3 -2 -2 -4 -1 -5 -4 1 -2 0 0 1 -0 -0 0 -0 -2 0 0 -0 -1 -2 -2 -2 -2 -0 1 -1 1 -1 -1
-4 -2 -1 2 -3 -5 -3 -0 -0 0 -0 1 -1 -1 -2 0 -2 -2 -4 -1 -7 -4 0 2 -0 1 -0 -0 0 1 -0 -0 -0 -1 -1 -1 -1 0 -2 -1 0 1 -0 -2
-2 -4 -4 -1 -0 0 0 -1 0 1 -0 0 3 4 7 -1 -3 -5 -5 -6 -0 0 -2 1 0 -1 1 -0 -0 -0 -1 -2 -2 -0 0 -1 -0 -0 0 -1 -1 -1 -0 0
3 -0 2 3 0 -0 1 0 -1 -0 -1 1 -1 -2 -10 -5 1 0 2 3 1 -1 -1 -0 1 -0 0 0 -1 -0 0 -0 0 0 1 -0 -1 -1 0 -1 -1 -1 -1 -1
-0 -1 -1 0 -2 -1 -1 -1 -0 0 2 -1 -2 -6 -0 2 -5 -3 -4 -2 -1 0 3 0 -0 1 0 0 0 0 0 -0 -1 0 0 0 1 1 0 -0 -1 -0 -1 0
Height
5673 5657 5640 5621 5601 5579 5560 5544 5533 5517 5503 5496 5487 5478 5469 5461 5454 5448 5442 5437 5431 5426 5420 5418 5414 5411 5408 5409 5412 5416 5420 5425 5432 5440 5446 5453 5461 5471 5481 5489 5501 5505 5504 5509
5670 5654 5637 5618 5598 5577 5560 5546 5533 5518 5506 5499 5488 5479 5472 5464 5458 5451 5445 5439 5433 5428 5423 5420 5415 5410 5407 5406 5408 5411 5415 5418 5424 5430 5437 5442 5449 5463 5473 5481 5483 5483 5492 5498
5667 5651 5633 5614 5594 5575 5557 5544 5533 5521 5508 5499 5492 5484 5477 5468 5461 5454 5447 5441 5436 5431 5425 5420 5416 5412 5408 5406 5406 5407 5411 5415 5419 5425 5430 5435 5441 5451 5460 5469 5468 5468 5480 5493
5664 5649 5631 5613 5594 5576 5560 5548 5535 5523 5511 5502 5494 5487 5479 5471 5465 5458 5451 5445 5438 5432 5426 5421 5416 5412 5408 5406 5405 5405 5408 5412 5416 5419 5424 5430 5435 5442 5450 5458 5459 5465 5472 5482
5662 5647 5631 5613 5594 5577 5563 5550 5538 5525 5513 5503 5497 5490 5484 5476 5468 5462 5455 5448 5441 5434 5428 5422 5416 5412 5409 5407 5406 5405 5405 5409 5412 5416 5420 5426 5431 5434 5440 5445 5451 5455 5467 5478
5661 5646 5629 5613 5596 5581 5570 5558 5543 5531 5519 5508 5501 5493 5486 5479 5472 5466 5458 5451 5445 5438 5431 5424 5418 5412 5410 5407 5407 5406 5406 5407 5410 5412 5416 5421 5428 5431 5433 5437 5442 5449 5458 5465
5659 5644 5629 5614 5598 5585 5570 5557 5545 5534 5524 5515 5504 5496 5489 5482 5476 5470 5463 5455 5448 5443 5435 5429 5423 5417 5413 5410 5408 5407 5406 5407 5409 5409 5413 5420 5423 5427 5431 5435 5440 5445 5449 5455
5658 5643 5628 5614 5599 5586 5573 5561 5549 5538 5528 5518 5509 5501 5493 5486 5479 5473 5467 5460 5453 5446 5441 5435 5427 5421 5417 5413 5410 5409 5407 5408 5408 5410 5412 5416 5420 5423 5427 5430 5435 5439 5443 5449
5657 5642 5628 5614 5600 5588 5577 5565 5554 5543 5533 5524 5514 5505 5497 5490 5482 5476 5470 5463 5456 5450 5445 5438 5432 5425 5420 5417 5414 5412 5411 5410 5410 5409 5409 5412 5414 5417 5420 5425 5430 5434 5437 5443
5656 5642 5629 5615 5602 5590 5580 5568 5557 5546 5537 5527 5518 5511 5502 5494 5486 5479 5473 5466 5460 5453 5448 5443 5437 5431 5426 5422 5418 5414 5413 5412 5412 5411 5410 5411 5411 5413 5415 5422 5429 5429 5433 5437
5656 5642 5629 5616 5604 5593 5583 5573 5562 5552 5541 5532 5523 5513 5505 5497 5490 5483 5476 5470 5463 5456 5450 5445 5441 5435 5431 5427 5423 5418 5416 5414 5412 5411 5410 5411 5410 5411 5414 5413 5415 5420 5424 5428
5655 5642 5629 5617 5606 5596 5585 5576 5566 5556 5546 5536 5527 5518 5510 5501 5493 5485 5478 5472 5464 5458 5452 5447 5442 5437 5433 5430 5426 5423 5421 5418 5416 5415 5412 5411 5410 5410 5409 5409 5410 5411 5414 5419
5654 5641 5630 5617 5606 5596 5587 5577 5567 5557 5548 5539 5531 5520 5512 5504 5496 5488 5481 5473 5466 5459 5453 5448 5443 5439 5434 5431 5427 5424 5422 5419 5417 5415 5412 5411 5410 5409 5409 5408 5408 5409 5410 5411
5653 5641 5629 5617 5606 5596 5587 5578 5568 5559 5550 5541 5532 5523 5514 5505 5497 5489 5481 5473 5466 5459 5453 5447 5442 5438 5434 5431 5428 5425 5423 5420 5418 5416 5415 5414 5412 5411 5409 5408 5407 5407 5407 5407
5652 5641 5629 5617 5606 5596 5586 5577 5568 5559 5551 5542 5533 5525 5517 5509 5500 5492 5483 5474 5466 5458 5451 5445 5439 5435 5431 5428 5425 5423 5421 5419 5417 5415 5414 5413 5412 5410 5410 5408 5407 5405 5405 5405
5651 5639 5629 5617 5606 5595 5587 5579 5570 5561 5552 5543 5534 5526 5516 5508 5500 5491 5482 5473 5464 5455 5447 5441 5435 5431 5428 5424 5421 5419 5416 5413 5412 5410 5409 5407 5406 5405 5404 5403 5403 5403 5402 5401
5649 5637 5627 5616 5605 5595 5586 5578 5568 5560 5551 5542 5533 5525 5515 5506 5497 5488 5479 5469 5459 5450 5442 5435 5429 5426 5423 5419 5416 5414 5411 5408 5406 5404 5401 5400 5399 5398 5398 5397 5396 5396 5396 5396
5647 5636 5626 5615 5604 5593 5585 5576 5567 5559 5551 5541 5531 5523 5514 5505 5496 5486 5475 5465 5454 5444 5435 5429 5425 5422 5418 5415 5412 5408 5405 5402 5400 5398 5396 5395 5393 5391 5390 5389 5389 5389 5389 5388
5645 5634 5624 5614 5603 5594 5585 5575 5567 5558 5550 5539 5530 5521 5512 5502 5493 5483 5473 5461 5450 5440 5431 5426 5422 5417 5413 5409 5405 5401 5397 5395 5392 5391 5389 5388 5387 5386 5384 5383 5382 5381 5381 5380
5643 5632 5623 5612 5602 5591 5583 5574 5565 5556 5548 5538 5529 5519 5510 5501 5490 5480 5469 5456 5445 5434 5428 5422 5418 5413 5408 5403 5398 5394 5390 5387 5385 5383 5382 5381 5379 5379 5378 5377 5376 5375 5374 5373
5641 5631 5620 5610 5599 5589 5578 5568 5560 5551 5543 5535 5526 5517 5508 5498 5489 5478 5466 5453 5440 5431 5425 5418 5413 5407 5402 5396 5392 5387 5384 5381 5378 5376 5374 5373 5372 5371 5370 5369 5369 5368 5367 5366
5638 5628 5616 5606 5595 5584 5574 5564 5556 5547 5540 5531 5523 5515 5505 5495 5486 5475 5462 5450 5437 5429 5419 5414 5408 5402 5396 5391 5386 5382 5378 5375 5372 5370 5367 5365 5364 5362 5361 5360 5359 5358 5358 5357
5633 5624 5613 5603 5592 5582 5570 5561 5554 5546 5539 5530 5522 5513 5504 5494 5483 5472 5459 5446 5436 5426 5417 5412 5405 5399 5392 5387 5382 5377 5372 5369 5365 5362 5360 5358 5356 5354 5352 5351 5350 5349 5347 5347
5629 5620 5610 5599 5587 5578 5569 5560 5552 5544 5537 5528 5519 5510 5502 5491 5480 5468 5456 5444 5432 5422 5415 5408 5400 5393 5388 5383 5377 5373 5368 5364 5360 5356 5353 5350 5349 5347 5344 5342 5340 5339 5337 5336
5626 5616 5607 5596 5586 5577 5567 5558 5550 5542 5535 5526 5518 5509 5500 5488 5477 5464 5452 5440 5430 5421 5412 5405 5398 5391 5385 5379 5374 5368 5363 5359 5355 5351 5347 5343 5340 5338 5336 5333 5331 5329 5327 5326
5623 5614 5604 5595 5584 5575 5565 5556 5547 5539 5531 5523 5514 5505 5494 5485 5475 5463 5451 5440 5429 5418 5408 5401 5394 5386 5380 5375 5369 5364 5359 5354 5350 5346 5342 5338 5334 5331 5329 5326 5323 5321 5318 5316
5620 5611 5601 5592 5581 5572 5562 5553 5545 5537 5528 5519 5510 5501 5492 5482 5471 5460 5449 5437 5425 5415 5405 5396 5390 5383 5376 5370 5364 5359 5354 5349 5345 5341 5337 5333 5329 5326 5323 5320 5316 5313 5310 5308